This is the latest recevied weather packets stored in our database for station/object EA6AMI-5. If no packets are shown the sender has not sent any weather packets the latest 10 day(s).
| Time | Temp. | Humidity | Pressure | Rain* | Wind** | Luminosity | Snow |
|---|---|---|---|---|---|---|---|
| 1777887903 | 19.44° C | 78% | 1013.7 hPa | 0 mm | - | 188 W/m² | - |
| 1777887363 | 20° C | 78% | 1013.8 hPa | 0 mm | - | 158 W/m² | - |
| 1777886823 | 19.44° C | 79% | 1013.6 hPa | 0 mm | - | 275 W/m² | - |
| 1777886283 | 18.89° C | 81% | 1013.5 hPa | 0 mm | - | 319 W/m² | - |
| 1777885743 | 18.89° C | 82% | 1013.6 hPa | 0 mm | - | 222 W/m² | - |
| 1777885203 | 18.89° C | 83% | 1013.6 hPa | 0 mm | - | 172 W/m² | - |
| 1777884844 | 18.89° C | 83% | 1013.7 hPa | 0 mm | - | 155 W/m² | - |
| 1777884303 | 18.89° C | 83% | 1013.6 hPa | 0 mm | - | 132 W/m² | - |
| 1777883763 | 18.89° C | 84% | 1013.5 hPa | 0 mm | - | 96 W/m² | - |
| 1777883223 | 18.33° C | 84% | 1013.5 hPa | 0 mm | - | 211 W/m² | - |
| 1777882683 | 18.89° C | 83% | 1013.6 hPa | 0 mm | - | 89 W/m² | - |
| 1777882144 | 19.44° C | 82% | 1013.5 hPa | 0 mm | - | 168 W/m² | - |
| 1777881603 | 18.89° C | 81% | 1013.5 hPa | 0 mm | - | 265 W/m² | - |
| 1777881243 | 18.89° C | 82% | 1013.2 hPa | 0 mm | - | 209 W/m² | - |
| 1777880704 | 18.89° C | 82% | 1013.3 hPa | 0 mm | - | 215 W/m² | - |
| 1777880163 | 18.33° C | 82% | 1013.2 hPa | 0 mm | - | 203 W/m² | - |
| 1777879623 | 18.33° C | 85% | 1013 hPa | 0 mm | - | 210 W/m² | - |
| 1777879083 | 17.78° C | 86% | 1013.2 hPa | 0 mm | - | 197 W/m² | - |
| 1777878543 | 17.78° C | 88% | 1013.1 hPa | 0 mm | - | 164 W/m² | - |
| 1777878003 | 17.78° C | 90% | 1013.2 hPa | 0 mm | - | 110 W/m² | - |
| 1777877643 | 17.22° C | 90% | 1013.4 hPa | 0 mm | - | 154 W/m² | - |
| 1777877104 | 16.67° C | 90% | 1013.4 hPa | 0 mm | - | 128 W/m² | - |
| 1777876564 | 16.67° C | 91% | 1013.3 hPa | 0 mm | - | 94 W/m² | - |
| 1777876023 | 17.22° C | 91% | 1013.6 hPa | 0 mm | - | 80 W/m² | - |
| 1777875483 | 16.67° C | 91% | 1013.5 hPa | 0 mm | - | 50 W/m² | - |
* Rain latest hour (hover to see other rain measurements)
** Current wind speed in m/s (hover to see current wind gust speed)